Location: Binningen
(47.7924°N, 8.7261°E)
Time: 04:17:58
(UTC+00:00)

Terra - Pass Details

Date: 27 September 2021
Orbit: 701 x 703 km, 98.2° (Epoch: 19 October)

Event Time Altitude Azimuth Distance (km) Brightness Sun altitude
Exits shadow 19:38:50 12° 34° (NNE) 2,060 4.1 -24.7°
Drops below altitude 10° 19:39:30 10° 26° (NNE) 2,180 4.4 -24.8°
Sets 19:42:48 0° 2° (N) 3,104 5.5 -25.3°
